Terminal Aerodrome Forecast
Issued by NWS Dodge City, KS

Home | Current Version | Previous Version | Graphics & Text | Print | Product List | Glossary Off
Versions: 1 2 3 4 5 6 7 8 9 10 11 12 13 14 15 16 17 18 19 20 21 22 23 24 25 26 27 28 29

000
FTUS43 KDDC 311120 AAB
TAFDDC
TAF AMD
KDDC 311120Z 3111/0106 16006KT 2SM BR SKC
     FM311300 16007KT 4SM BR SKC
     FM311500 18012KT P6SM SKC=

USA.gov is the U.S. government's official web portal to all federal, state and local government web resources and services.